Location: DaltonSkyGazer Observatory
(42.4858°N, 73.1565°W)
Time: 06:54:02
(UTC-04:00)

Helios 1B - Visible Passes

Search period start: 24 June 2018 00:00
Search period end: 04 July 2018 00:00
Orbit: 620 x 623 km, 98.2° (Epoch: 23 June)

Date Brightness Start Highest point End Pass type
(mag) Time Alt. Az. Time Alt. Az. Time Alt. Az.
24 Jun 5.0 01:51:57 46° ESE 01:52:53 58° ENE 01:57:10 10° N visible
24 Jun 6.6 03:29:09 13° W 03:29:21 13° W 03:31:24 10° WNW visible
25 Jun 4.5 02:09:59 63° SSE 02:10:41 90° WSW 02:15:02 10° NNW visible
26 Jun 7.0 00:50:48 11° E 00:52:52 15° ENE 00:55:15 10° NNE visible
26 Jun 4.6 02:28:01 53° SW 02:28:31 57° W 02:32:48 10° NNW visible
27 Jun 6.6 01:08:50 17° E 01:10:30 21° ENE 01:13:47 10° NNE visible
27 Jun 5.2 02:46:03 36° WSW 02:46:23 36° W 02:50:25 10° NNW visible
28 Jun 6.0 01:26:52 26° ESE 01:28:11 31° ENE 01:32:01 10° N visible
28 Jun 5.8 03:04:05 24° W 03:04:18 24° W 03:07:51 10° NW visible
29 Jun 5.3 01:44:54 39° ESE 01:45:54 47° ENE 01:50:05 10° N visible
29 Jun 6.4 03:22:07 16° W 03:22:16 16° W 03:24:55 10° NW visible
30 Jun 4.6 02:02:57 59° SE 02:03:40 75° ENE 02:08:01 10° N visible
01 Jul 7.2 00:44:13 10° E 00:45:57 12° ENE 00:47:41 10° NE visible
01 Jul 4.4 02:20:59 63° SSW 02:21:29 70° WSW 02:25:49 10° NNW visible
02 Jul 6.8 01:01:49 15° E 01:03:34 18° ENE 01:06:30 10° NNE visible
02 Jul 4.9 02:39:02 43° WSW 02:39:20 44° W 02:43:30 10° NNW visible
03 Jul 6.2 01:19:52 22° E 01:21:13 26° ENE 01:24:50 10° N visible
03 Jul 5.6 02:57:04 29° W 02:57:14 29° W 03:01:00 10° NW visible
